Home > Weather > Bad Kreuznach > Past weeks

Flag for Germany Past Weather in Bad Kreuznach, Rhineland-Palatinate, Germany — Yesterday and Last 2 Weeks

Now
50 °F

Overcast.


Feels Like: 48 °F
Forecast: 47 / 71 °F
Wind: 5 mph from North

Location: Wiesbaden Airport

Current Time: May 25, 2016 at 3:34:54 AM

Latest Report: May 25, 2016 at 2:58 AM


Visibility: N/A

Pressure: 29.99 "Hg

Humidity: 88%

Dew Point: 46 °F

Location of Bad KreuznachLocation

Past Weather in Bad Kreuznach — Graph

°F

Bad Kreuznach Temperature Yesterday

Maximum temperature yesterday: 54 °F (at 12:16 AM)
Minimum temperature yesterday: 51 °F (at 10:58 PM)
Average temperature yesterday: 53 °F

High & Low Weather Summary for the Past Weeks

 TemperatureHumidityPressure
High77 °F (May 22, 2:58 PM)94% (May 11, 4:55 AM)30.15 "Hg (May 11, 4:55 AM)
Low42 °F (May 15, 3:58 AM)31% (May 11, 4:55 PM)29.46 "Hg (May 12, 5:55 AM)
Average57 °F67%29.88 "Hg
* Reported May 10 4:55 AM — May 25 1:58 AM, Bad Kreuznach, Weather by CustomWeather, © 2016

Note: Actual official high and low records may vary slightly from our data, if they occured in-between our weather recording intervals... More about our weather records

Advertising

Bad Kreuznach Weather History for the Previous 24 Hours

Scroll right to see more
 ConditionsComfort  
Time TempWeatherWind HumidityBarometerVisibility
1:58 AM
Wed, May 25
50 °FMostly cloudy.No wind88%30.00 "HgN/A
12:58 AM50 °FOvercast.2 mph88%30.00 "HgN/A
11:58 PM
Tue, May 24
52 °FOvercast.3 mph82%30.00 "HgN/A
10:58 PM51 °FMostly cloudy.3 mph84%30.00 "HgN/A
9:58 PM52 °FOvercast.5 mph83%30.00 "HgN/A
8:58 PM52 °FMostly cloudy.6 mph82%30.00 "HgN/A
7:58 PM53 °FOvercast.5 mph80%29.99 "HgN/A
6:58 PM53 °FOvercast.8 mph80%29.99 "HgN/A
6:02 PM54 °FLight rain. Overcast.10 mph77%29.98 "HgN/A
4:58 PM53 °FLight rain. Overcast.9 mph81%29.99 "HgN/A
3:58 PM54 °FLight rain. Mostly cloudy.9 mph82%30.00 "HgN/A
3:04 PM54 °FLight rain. More clouds than sun.12 mph82%29.98 "HgN/A
2:58 PM53 °FLight rain. Mostly cloudy.10 mph83%29.99 "HgN/A
1:58 PM53 °FLight rain. Scattered clouds.8 mph85%29.99 "HgN/A
12:58 PM52 °FLight rain. Partly sunny.9 mph88%29.99 "HgN/A
11:58 AM52 °FLight rain. Partly sunny.9 mph88%29.99 "HgN/A
10:58 AM52 °FLight rain. Overcast.9 mph83%29.98 "HgN/A
9:58 AM52 °FLight rain. Overcast.10 mph82%29.97 "HgN/A
8:59 AM52 °FDrizzle. Mostly cloudy.9 mph77%29.96 "HgN/A
7:58 AM53 °FOvercast.13 mph78%29.96 "HgN/A
6:58 AM53 °FOvercast.10 mph79%29.95 "HgN/A
5:58 AM52 °FMostly cloudy.13 mph82%29.93 "HgN/A
4:58 AM52 °FOvercast.10 mph88%29.93 "HgN/A
3:58 AM54 °FOvercast.8 mph77%29.93 "HgN/A
Weather by CustomWeather, © 2016

See weather overviewHow to use our weather pages